CCA825 ZSPD-WSSS

Flight info

Callsign CCA825
Flight time N/A
Altitude 40100
Route HSN82D HSN W13 BEGMO M503 TOLAK/N0481F401 M503 LAPUG/K0891S1220 R200 BEBEM/N0481F401 A470 DOTMI DCT ENROM DCT SULUX DCT EPKAL/K0891F401 L642 ESPOB/N0477F401 Q801 ESBUM Q802 ELALO ELALO1A
Aircraft B77W/H-SDE1E2E3FGHIJ2J3J4J5M1RWXY/LB1D1

Departure

Time N/A
Airport Shanghai Pudong International Airport (ZSPD)

Arrival

Time 2026-05-01 10:08
Airport Singapore Changi Airport (WSSS)
Time Latitude Longitude Altitude Speed Heading
2026-05-01 07:23 20.03112 115.09045 39933 ft 498 kts 226°
2026-05-01 07:24 19.95554 115.01480 39933 ft 499 kts 226°
2026-05-01 07:24 19.90478 114.96405 39933 ft 499 kts 226°
2026-05-01 07:25 19.85440 114.91372 39917 ft 499 kts 226°
2026-05-01 07:25 19.80362 114.86304 39908 ft 498 kts 226°
2026-05-01 07:26 19.75336 114.81293 39907 ft 498 kts 226°
2026-05-01 07:26 19.70291 114.76267 39908 ft 498 kts 226°
2026-05-01 07:27 19.65212 114.71212 39907 ft 497 kts 226°
2026-05-01 07:27 19.60193 114.66222 39907 ft 497 kts 226°
2026-05-01 07:28 19.55132 114.61194 39907 ft 497 kts 226°
2026-05-01 07:28 19.50073 114.56172 39906 ft 497 kts 226°
2026-05-01 07:29 19.45055 114.51196 39906 ft 497 kts 226°
2026-05-01 07:29 19.40012 114.46199 39907 ft 496 kts 226°
2026-05-01 07:30 19.34970 114.41208 39906 ft 496 kts 226°
2026-05-01 07:30 19.29916 114.36209 39905 ft 496 kts 226°
2026-05-01 07:31 19.24871 114.31224 39912 ft 497 kts 225°
2026-05-01 07:32 19.12206 114.18728 39913 ft 497 kts 225°
2026-05-01 07:33 19.04614 114.11250 39909 ft 497 kts 225°
2026-05-01 07:33 18.97005 114.03766 39909 ft 497 kts 226°
2026-05-01 07:34 18.89411 113.96307 39907 ft 496 kts 226°
2026-05-01 07:35 18.84351 113.91341 39906 ft 496 kts 226°
2026-05-01 07:35 18.79280 113.86369 39907 ft 496 kts 226°
2026-05-01 07:36 18.74241 113.81433 39900 ft 496 kts 226°
2026-05-01 07:36 18.69169 113.76469 39899 ft 495 kts 226°
2026-05-01 07:37 18.61595 113.69064 39905 ft 495 kts 226°
2026-05-01 07:37 18.56561 113.64148 39903 ft 495 kts 226°
2026-05-01 07:38 18.51516 113.59224 39899 ft 495 kts 226°
2026-05-01 07:39 18.43924 113.51824 39899 ft 494 kts 226°
2026-05-01 07:39 18.36350 113.44450 39900 ft 494 kts 226°
2026-05-01 07:40 18.31309 113.39547 39902 ft 493 kts 226°
2026-05-01 07:40 18.26258 113.34639 39901 ft 493 kts 226°
2026-05-01 07:41 18.21220 113.29747 39909 ft 493 kts 226°
2026-05-01 07:42 18.13653 113.22407 39911 ft 493 kts 226°
2026-05-01 07:42 18.08616 113.17526 39912 ft 492 kts 226°
2026-05-01 07:43 18.03556 113.12627 39912 ft 492 kts 226°
2026-05-01 07:43 17.95948 113.05269 39910 ft 493 kts 226°
2026-05-01 07:44 17.85823 112.95549 39895 ft 495 kts 223°
2026-05-01 07:45 17.80317 112.91149 39907 ft 496 kts 221°
2026-05-01 07:45 17.74806 112.86820 39903 ft 496 kts 221°
2026-05-01 07:46 17.69255 112.82461 39903 ft 496 kts 221°
2026-05-01 07:47 17.60968 112.75957 39895 ft 497 kts 221°
2026-05-01 07:47 17.55423 112.71610 39895 ft 497 kts 221°
2026-05-01 07:48 17.47096 112.65087 39896 ft 496 kts 221°
2026-05-01 07:48 17.41574 112.60765 39894 ft 496 kts 221°
2026-05-01 07:49 17.33245 112.54253 39893 ft 497 kts 221°
2026-05-01 07:50 17.27683 112.49908 39889 ft 497 kts 221°
2026-05-01 07:50 17.19372 112.43422 39885 ft 497 kts 221°
2026-05-01 07:51 17.13823 112.39096 39885 ft 497 kts 221°
2026-05-01 07:52 17.05485 112.32601 39897 ft 498 kts 221°
2026-05-01 07:52 16.99909 112.28262 39894 ft 499 kts 221°
2026-05-01 07:53 16.91447 112.21830 39894 ft 500 kts 220°
2026-05-01 07:53 16.85822 112.17570 39890 ft 499 kts 220°
2026-05-01 07:55 16.71753 112.06924 39887 ft 499 kts 220°
2026-05-01 07:56 16.57684 111.96292 39889 ft 499 kts 220°
2026-05-01 07:57 16.49227 111.89910 39888 ft 499 kts 220°
2026-05-01 07:58 16.37953 111.81414 39886 ft 499 kts 220°
2026-05-01 07:59 16.26688 111.72936 39877 ft 499 kts 220°
2026-05-01 08:00 16.09751 111.60213 39870 ft 499 kts 220°
2026-05-01 08:01 15.98472 111.51756 39865 ft 500 kts 220°
2026-05-01 08:02 15.90003 111.45413 39865 ft 499 kts 220°
2026-05-01 08:03 15.81504 111.39054 39860 ft 499 kts 219°
2026-05-01 08:03 15.73081 111.32760 39869 ft 498 kts 219°
2026-05-01 08:04 15.61831 111.24362 39870 ft 497 kts 219°
2026-05-01 08:05 15.53396 111.18072 39870 ft 496 kts 218°
2026-05-01 08:06 15.44945 111.11779 39875 ft 496 kts 218°
2026-05-01 08:07 15.33706 111.03400 39876 ft 496 kts 218°
2026-05-01 08:08 15.25290 110.96995 39882 ft 495 kts 218°
2026-05-01 08:09 15.14154 110.88533 39888 ft 494 kts 218°
2026-05-01 08:09 15.08609 110.84326 39884 ft 494 kts 218°
2026-05-01 08:10 14.97466 110.75882 39867 ft 495 kts 218°
2026-05-01 08:11 14.86327 110.67454 39869 ft 495 kts 218°
2026-05-01 08:12 14.77935 110.61110 39866 ft 495 kts 218°
2026-05-01 08:13 14.69603 110.54819 39865 ft 495 kts 218°
2026-05-01 08:13 14.61214 110.48491 39865 ft 495 kts 218°
2026-05-01 08:14 14.55603 110.44262 39865 ft 495 kts 218°
2026-05-01 08:14 14.50030 110.40063 39867 ft 495 kts 218°
2026-05-01 08:15 14.41640 110.33749 39873 ft 496 kts 218°
2026-05-01 08:16 14.36042 110.29538 39869 ft 497 kts 218°
2026-05-01 08:16 14.30454 110.25339 39871 ft 497 kts 218°
2026-05-01 08:17 14.24828 110.21113 39870 ft 497 kts 218°
2026-05-01 08:17 14.19258 110.16931 39869 ft 497 kts 218°
2026-05-01 08:18 14.13648 110.12723 39869 ft 497 kts 218°
2026-05-01 08:19 14.02455 110.04334 39869 ft 498 kts 218°
2026-05-01 08:19 13.96810 110.00108 39868 ft 498 kts 218°
2026-05-01 08:20 13.90948 109.96195 39865 ft 499 kts 213°
2026-05-01 08:20 13.85021 109.92436 39866 ft 499 kts 213°
2026-05-01 08:21 13.79138 109.88682 39864 ft 499 kts 214°
2026-05-01 08:21 13.73173 109.84864 39865 ft 499 kts 214°
2026-05-01 08:22 13.67305 109.81103 39858 ft 499 kts 214°
2026-05-01 08:22 13.61349 109.77284 39853 ft 500 kts 214°
2026-05-01 08:23 13.55445 109.73498 39848 ft 500 kts 214°
2026-05-01 08:23 13.49538 109.69711 39846 ft 500 kts 214°
2026-05-01 08:24 13.43631 109.65926 39844 ft 500 kts 214°
2026-05-01 08:24 13.37727 109.62144 39845 ft 500 kts 214°
2026-05-01 08:25 13.31783 109.58340 39844 ft 500 kts 214°
2026-05-01 08:25 13.25908 109.54582 39845 ft 500 kts 214°
2026-05-01 08:26 13.19928 109.50757 39844 ft 500 kts 214°
2026-05-01 08:26 13.14040 109.46995 39844 ft 500 kts 214°
2026-05-01 08:27 13.08108 109.43205 39847 ft 500 kts 213°
2026-05-01 08:27 13.02176 109.39420 39847 ft 499 kts 213°
2026-05-01 08:28 12.96261 109.35646 39850 ft 499 kts 214°
2026-05-01 08:28 12.90360 109.31883 39860 ft 500 kts 213°
2026-05-01 08:29 12.84439 109.28110 39860 ft 500 kts 213°
2026-05-01 08:29 12.78464 109.24305 39863 ft 500 kts 213°
2026-05-01 08:30 12.72565 109.20550 39889 ft 499 kts 213°
2026-05-01 08:30 12.66634 109.16777 39897 ft 500 kts 213°
2026-05-01 08:31 12.60689 109.12998 39894 ft 500 kts 213°
2026-05-01 08:31 12.54775 109.09244 39886 ft 500 kts 213°
2026-05-01 08:32 12.48812 109.05460 39861 ft 500 kts 213°
2026-05-01 08:32 12.42855 109.01683 39618 ft 503 kts 213°
2026-05-01 08:32 12.39835 108.99769 39484 ft 503 kts 213°
2026-05-01 08:33 12.36835 108.97868 39379 ft 503 kts 213°
2026-05-01 08:33 12.30854 108.94079 39185 ft 505 kts 213°
2026-05-01 08:34 12.24843 108.90273 38989 ft 506 kts 213°
2026-05-01 08:34 12.21862 108.88387 38879 ft 507 kts 213°
2026-05-01 08:34 12.18827 108.86466 38718 ft 508 kts 213°
2026-05-01 08:34 12.15815 108.84561 38555 ft 508 kts 213°
2026-05-01 08:35 12.12805 108.82658 38399 ft 509 kts 213°
2026-05-01 08:35 12.09784 108.80748 38252 ft 509 kts 213°
2026-05-01 08:35 12.06760 108.78837 38108 ft 510 kts 212°
2026-05-01 08:35 12.03735 108.76926 37960 ft 510 kts 213°
2026-05-01 08:36 12.00715 108.75018 37814 ft 510 kts 212°
2026-05-01 08:36 11.97690 108.73108 37665 ft 511 kts 212°
2026-05-01 08:36 11.94669 108.71201 37519 ft 512 kts 212°
2026-05-01 08:36 11.91605 108.69267 37371 ft 513 kts 213°
2026-05-01 08:37 11.88584 108.67360 37222 ft 514 kts 213°
2026-05-01 08:37 11.85516 108.65425 37068 ft 514 kts 213°
2026-05-01 08:37 11.82461 108.63499 36919 ft 515 kts 213°
2026-05-01 08:37 11.79393 108.61564 36772 ft 516 kts 213°
2026-05-01 08:38 11.76313 108.59624 36625 ft 516 kts 213°
2026-05-01 08:38 11.73254 108.57697 36478 ft 517 kts 213°
2026-05-01 08:38 11.70198 108.55772 36326 ft 518 kts 212°
2026-05-01 08:38 11.67091 108.53816 36179 ft 518 kts 213°
2026-05-01 08:39 11.64024 108.51885 36034 ft 518 kts 213°
2026-05-01 08:39 11.60967 108.49961 35889 ft 519 kts 213°
2026-05-01 08:39 11.57852 108.48001 35745 ft 520 kts 212°
2026-05-01 08:39 11.54783 108.46071 35596 ft 521 kts 212°
2026-05-01 08:40 11.48587 108.42175 35302 ft 523 kts 212°
2026-05-01 08:40 11.45500 108.40235 35156 ft 524 kts 212°
2026-05-01 08:40 11.42369 108.38268 35012 ft 525 kts 212°
2026-05-01 08:41 11.39217 108.36289 34882 ft 525 kts 212°
2026-05-01 08:41 11.36114 108.34339 34869 ft 526 kts 212°
2026-05-01 08:41 11.29848 108.30406 34850 ft 527 kts 212°
2026-05-01 08:42 11.23613 108.26495 34835 ft 527 kts 212°
2026-05-01 08:42 11.17342 108.22562 34832 ft 526 kts 212°
2026-05-01 08:43 11.11070 108.18630 34843 ft 527 kts 212°
2026-05-01 08:43 11.04819 108.14715 34837 ft 527 kts 212°
2026-05-01 08:44 10.98547 108.10788 34822 ft 527 kts 212°
2026-05-01 08:44 10.92281 108.06866 34821 ft 528 kts 212°
2026-05-01 08:45 10.86083 108.02769 34816 ft 528 kts 214°
2026-05-01 08:45 10.79922 107.98658 34817 ft 528 kts 214°
2026-05-01 08:46 10.73785 107.94573 34814 ft 528 kts 214°
2026-05-01 08:46 10.67602 107.90464 34809 ft 528 kts 213°
2026-05-01 08:47 10.61443 107.86375 34808 ft 528 kts 213°
2026-05-01 08:47 10.55300 107.82301 34807 ft 529 kts 213°
2026-05-01 08:48 10.49095 107.78188 34804 ft 528 kts 213°
2026-05-01 08:48 10.42908 107.74093 34803 ft 529 kts 213°
2026-05-01 08:49 10.36736 107.70024 34810 ft 529 kts 213°
2026-05-01 08:49 10.30543 107.65944 34812 ft 529 kts 213°
2026-05-01 08:50 10.24354 107.61867 34817 ft 529 kts 213°
2026-05-01 08:50 10.18129 107.57770 34816 ft 529 kts 213°
2026-05-01 08:51 10.11898 107.53668 34812 ft 529 kts 213°
2026-05-01 08:51 10.05719 107.49591 34818 ft 530 kts 213°
2026-05-01 08:52 9.99512 107.45497 34816 ft 531 kts 213°
2026-05-01 08:52 9.93290 107.41396 34814 ft 531 kts 213°
2026-05-01 08:53 9.87062 107.37292 34809 ft 530 kts 213°
2026-05-01 08:53 9.80843 107.33196 34811 ft 530 kts 213°
2026-05-01 08:54 9.74659 107.29125 34811 ft 528 kts 213°
2026-05-01 08:54 9.68488 107.25065 34812 ft 530 kts 213°
2026-05-01 08:55 9.62281 107.20983 34814 ft 529 kts 213°
2026-05-01 08:55 9.56120 107.16933 34812 ft 526 kts 213°
2026-05-01 08:56 9.49886 107.12837 34807 ft 530 kts 213°
2026-05-01 08:56 9.43709 107.08780 34807 ft 528 kts 213°
2026-05-01 08:57 9.37545 107.04733 34808 ft 527 kts 213°
2026-05-01 08:57 9.31366 107.00678 34806 ft 527 kts 213°
2026-05-01 08:58 9.25173 106.96616 34807 ft 528 kts 213°
2026-05-01 08:58 9.18990 106.92561 34807 ft 528 kts 213°
2026-05-01 08:59 9.12838 106.88530 34805 ft 527 kts 213°
2026-05-01 08:59 9.06661 106.84483 34806 ft 527 kts 213°
2026-05-01 09:00 9.00488 106.80441 34806 ft 525 kts 213°
2026-05-01 09:00 8.94300 106.76390 34806 ft 527 kts 213°
2026-05-01 09:01 8.88104 106.72336 34803 ft 527 kts 213°
2026-05-01 09:01 8.81953 106.68313 34806 ft 529 kts 213°
2026-05-01 09:02 8.75746 106.64255 34804 ft 529 kts 213°
2026-05-01 09:02 8.69538 106.60275 34817 ft 528 kts 212°
2026-05-01 09:03 8.63240 106.56380 34825 ft 527 kts 211°
2026-05-01 09:03 8.56951 106.52486 34828 ft 527 kts 212°
2026-05-01 09:04 8.50675 106.48596 34826 ft 528 kts 212°
2026-05-01 09:04 8.44402 106.44707 34827 ft 529 kts 212°
2026-05-01 09:05 8.38092 106.40795 34828 ft 529 kts 212°
2026-05-01 09:05 8.31814 106.36903 34829 ft 529 kts 212°
2026-05-01 09:06 8.25491 106.32985 34825 ft 529 kts 212°
2026-05-01 09:06 8.19177 106.29073 34818 ft 531 kts 212°
2026-05-01 09:07 8.12868 106.25166 34807 ft 532 kts 212°
2026-05-01 09:07 8.06513 106.21233 34807 ft 532 kts 212°
2026-05-01 09:08 8.00198 106.17325 34811 ft 531 kts 212°
2026-05-01 09:08 7.93879 106.13416 34809 ft 531 kts 212°
2026-05-01 09:09 7.87576 106.09517 34803 ft 531 kts 212°
2026-05-01 09:09 7.81243 106.05603 34804 ft 532 kts 212°
2026-05-01 09:10 7.74880 106.01670 34803 ft 532 kts 212°
2026-05-01 09:10 7.68535 105.97751 34805 ft 533 kts 212°
2026-05-01 09:11 7.62188 105.93832 34807 ft 532 kts 212°
2026-05-01 09:11 7.55848 105.89918 34811 ft 532 kts 212°
2026-05-01 09:12 7.49560 105.86037 34815 ft 531 kts 212°
2026-05-01 09:12 7.43204 105.82117 34822 ft 533 kts 212°
2026-05-01 09:13 7.36837 105.78191 34826 ft 534 kts 212°
2026-05-01 09:13 7.30512 105.74291 34827 ft 533 kts 212°
2026-05-01 09:14 7.24118 105.70351 34827 ft 534 kts 212°
2026-05-01 09:14 7.17789 105.66452 34828 ft 533 kts 212°
2026-05-01 09:15 7.11429 105.62535 34829 ft 533 kts 212°
2026-05-01 09:15 7.05075 105.58624 34827 ft 533 kts 212°
2026-05-01 09:16 6.98726 105.54728 34822 ft 534 kts 210°
2026-05-01 09:17 6.88735 105.49659 34827 ft 535 kts 206°
2026-05-01 09:17 6.78761 105.44644 34827 ft 534 kts 207°
2026-05-01 09:18 6.68822 105.39615 34826 ft 534 kts 207°
2026-05-01 09:19 6.58871 105.34566 34817 ft 533 kts 206°
2026-05-01 09:20 6.48882 105.29496 34806 ft 534 kts 206°
2026-05-01 09:21 6.35623 105.22764 34806 ft 534 kts 206°
2026-05-01 09:21 6.25620 105.17687 34807 ft 534 kts 206°
2026-05-01 09:22 6.12298 105.10928 34807 ft 535 kts 206°
2026-05-01 09:23 6.02270 105.05843 34809 ft 534 kts 206°
2026-05-01 09:24 5.92280 105.00778 34813 ft 535 kts 206°
2026-05-01 09:25 5.78958 104.94029 34827 ft 535 kts 206°
2026-05-01 09:26 5.68935 104.88952 34827 ft 534 kts 207°
2026-05-01 09:26 5.58936 104.83890 34827 ft 535 kts 207°
2026-05-01 09:27 5.48957 104.78840 34827 ft 535 kts 207°
2026-05-01 09:28 5.42304 104.75474 34827 ft 535 kts 207°
2026-05-01 09:28 5.35636 104.72102 34829 ft 535 kts 207°
2026-05-01 09:29 5.25674 104.67065 34828 ft 534 kts 207°
2026-05-01 09:30 5.15712 104.62031 34828 ft 533 kts 207°
2026-05-01 09:30 5.05761 104.57002 34834 ft 534 kts 207°
2026-05-01 09:31 4.99072 104.53624 34839 ft 532 kts 207°
2026-05-01 09:31 4.92394 104.50326 34404 ft 535 kts 202°
2026-05-01 09:32 4.88862 104.49130 34304 ft 535 kts 194°
2026-05-01 09:32 4.81492 104.48268 34111 ft 533 kts 178°
2026-05-01 09:32 4.77761 104.48583 34028 ft 531 kts 172°
2026-05-01 09:33 4.70448 104.49528 33857 ft 527 kts 172°
2026-05-01 09:33 4.63194 104.50468 33689 ft 525 kts 172°
2026-05-01 09:34 4.59547 104.50935 33606 ft 523 kts 172°
2026-05-01 09:34 4.48641 104.52325 33353 ft 522 kts 172°
2026-05-01 09:35 4.37823 104.53694 33105 ft 521 kts 172°
2026-05-01 09:36 4.30599 104.54607 32942 ft 519 kts 172°
2026-05-01 09:36 4.23447 104.55510 32780 ft 518 kts 172°
2026-05-01 09:37 4.16243 104.56324 32619 ft 517 kts 174°
2026-05-01 09:37 4.09043 104.57012 32464 ft 515 kts 174°
2026-05-01 09:37 4.05486 104.57354 32393 ft 514 kts 174°
2026-05-01 09:38 3.98337 104.58045 32245 ft 512 kts 174°
2026-05-01 09:38 3.94766 104.58392 32171 ft 512 kts 174°
2026-05-01 09:39 3.83905 104.59451 31902 ft 532 kts 174°
2026-05-01 09:39 3.80203 104.59813 31774 ft 531 kts 174°
2026-05-01 09:39 3.76513 104.60173 31645 ft 531 kts 174°
2026-05-01 09:40 3.72798 104.60537 31519 ft 531 kts 174°
2026-05-01 09:40 3.65431 104.61259 31263 ft 529 kts 174°
2026-05-01 09:40 3.61750 104.61620 31138 ft 527 kts 174°
2026-05-01 09:41 3.58079 104.61981 31011 ft 526 kts 174°
2026-05-01 09:41 3.50786 104.62697 30760 ft 524 kts 174°
2026-05-01 09:41 3.47155 104.63053 30637 ft 523 kts 173°
2026-05-01 09:42 3.43525 104.63409 30512 ft 522 kts 173°
2026-05-01 09:42 3.39948 104.63760 30389 ft 521 kts 173°
2026-05-01 09:42 3.32610 104.64481 30009 ft 534 kts 173°
2026-05-01 09:43 3.25215 104.65206 29607 ft 531 kts 173°
2026-05-01 09:43 3.21502 104.65570 29404 ft 529 kts 173°
2026-05-01 09:43 3.17839 104.65929 29205 ft 532 kts 173°
2026-05-01 09:44 3.10348 104.65967 28671 ft 539 kts 187°
2026-05-01 09:44 3.06664 104.65224 28296 ft 537 kts 195°
2026-05-01 09:44 3.03151 104.63995 27777 ft 535 kts 203°
2026-05-01 09:45 2.99873 104.62309 27228 ft 531 kts 211°
2026-05-01 09:45 2.94202 104.57703 26118 ft 523 kts 226°
2026-05-01 09:45 2.91750 104.54974 25523 ft 520 kts 228°
2026-05-01 09:46 2.89364 104.52286 24928 ft 515 kts 227°
2026-05-01 09:46 2.86991 104.49644 24333 ft 507 kts 227°
2026-05-01 09:46 2.84639 104.47050 23740 ft 498 kts 226°
2026-05-01 09:46 2.82320 104.44509 23157 ft 491 kts 226°
2026-05-01 09:47 2.80058 104.42048 22836 ft 477 kts 226°
2026-05-01 09:47 2.77839 104.39642 22754 ft 458 kts 225°
2026-05-01 09:47 2.75712 104.37343 22702 ft 441 kts 225°
2026-05-01 09:47 2.73641 104.35111 22364 ft 432 kts 225°
2026-05-01 09:48 2.71616 104.32934 21743 ft 432 kts 225°
2026-05-01 09:48 2.69550 104.30718 21083 ft 432 kts 225°
2026-05-01 09:48 2.67517 104.28540 20528 ft 429 kts 225°
2026-05-01 09:48 2.65502 104.26382 20028 ft 424 kts 225°
2026-05-01 09:49 2.63494 104.24235 19508 ft 421 kts 225°
2026-05-01 09:49 2.61491 104.22093 18972 ft 418 kts 225°
2026-05-01 09:49 2.59525 104.19992 18432 ft 415 kts 225°
2026-05-01 09:49 2.57551 104.17883 17925 ft 411 kts 225°
2026-05-01 09:50 2.55618 104.15816 17569 ft 394 kts 226°
2026-05-01 09:50 2.53712 104.13949 17260 ft 374 kts 217°
2026-05-01 09:50 2.51609 104.12563 17017 ft 353 kts 203°
2026-05-01 09:50 2.49368 104.11674 16886 ft 339 kts 195°
2026-05-01 09:51 2.47077 104.11108 16546 ft 334 kts 187°
2026-05-01 09:51 2.44775 104.10783 16141 ft 332 kts 183°
2026-05-01 09:51 2.42480 104.10605 15739 ft 329 kts 179°
2026-05-01 09:51 2.40215 104.10531 15405 ft 326 kts 178°
2026-05-01 09:52 2.37948 104.10507 15028 ft 324 kts 177°
2026-05-01 09:52 2.35679 104.10501 14668 ft 322 kts 177°
2026-05-01 09:52 2.33447 104.10500 14323 ft 320 kts 177°
2026-05-01 09:52 2.31194 104.10500 13962 ft 319 kts 177°
2026-05-01 09:53 2.28992 104.10500 13614 ft 317 kts 177°
2026-05-01 09:53 2.26777 104.10500 13265 ft 315 kts 177°
2026-05-01 09:53 2.24580 104.10500 12975 ft 311 kts 177°
2026-05-01 09:53 2.22440 104.10499 12847 ft 301 kts 177°
2026-05-01 09:54 2.20354 104.10499 12541 ft 299 kts 177°
2026-05-01 09:54 2.18291 104.10499 12164 ft 295 kts 177°
2026-05-01 09:54 2.16213 104.10500 11621 ft 295 kts 177°
2026-05-01 09:54 2.14169 104.10500 11146 ft 292 kts 177°
2026-05-01 09:55 2.12144 104.10500 10694 ft 289 kts 177°
2026-05-01 09:55 2.10144 104.10500 10215 ft 287 kts 177°
2026-05-01 09:55 2.08126 104.10500 9737 ft 284 kts 178°
2026-05-01 09:55 2.06175 104.10500 9281 ft 282 kts 178°
2026-05-01 09:56 2.04221 104.10500 8800 ft 280 kts 177°
2026-05-01 09:56 2.02265 104.10500 8330 ft 278 kts 177°
2026-05-01 09:56 2.00334 104.10499 8087 ft 267 kts 178°
2026-05-01 09:56 1.98523 104.10498 7955 ft 253 kts 177°
2026-05-01 09:57 1.96759 104.10505 7589 ft 252 kts 176°
2026-05-01 09:57 1.95023 104.10516 7193 ft 249 kts 176°
2026-05-01 09:57 1.93281 104.10525 6635 ft 249 kts 177°
2026-05-01 09:57 1.91544 104.10532 6134 ft 247 kts 177°
2026-05-01 09:58 1.89821 104.10540 6010 ft 248 kts 177°
2026-05-01 09:58 1.88093 104.10548 5887 ft 251 kts 177°
2026-05-01 09:58 1.86325 104.10557 5349 ft 252 kts 178°
2026-05-01 09:58 1.84600 104.10563 5003 ft 243 kts 177°
2026-05-01 09:59 1.82897 104.10571 4831 ft 244 kts 178°
2026-05-01 09:59 1.81187 104.10579 4698 ft 243 kts 178°
2026-05-01 09:59 1.79484 104.10586 4575 ft 243 kts 177°
2026-05-01 09:59 1.77791 104.10594 4450 ft 242 kts 177°
2026-05-01 10:00 1.76115 104.10601 4328 ft 241 kts 177°
2026-05-01 10:00 1.74429 104.10609 4204 ft 240 kts 177°
2026-05-01 10:00 1.72747 104.10616 4081 ft 240 kts 177°
2026-05-01 10:00 1.71068 104.10624 3957 ft 240 kts 177°
2026-05-01 10:01 1.69385 104.10632 3833 ft 239 kts 178°
2026-05-01 10:01 1.67726 104.10639 3708 ft 234 kts 177°
2026-05-01 10:01 1.66142 104.10644 3587 ft 218 kts 177°
2026-05-01 10:01 1.64656 104.10651 3483 ft 209 kts 177°
2026-05-01 10:02 1.63196 104.10659 3380 ft 208 kts 177°
2026-05-01 10:02 1.61753 104.10568 3274 ft 208 kts 193°
2026-05-01 10:02 1.60416 104.09950 3161 ft 211 kts 208°
2026-05-01 10:02 1.59169 104.09187 3056 ft 210 kts 210°
2026-05-01 10:03 1.57919 104.08409 2949 ft 210 kts 210°
2026-05-01 10:03 1.56676 104.07640 2843 ft 209 kts 210°
2026-05-01 10:03 1.55443 104.06879 2729 ft 208 kts 210°
2026-05-01 10:03 1.54200 104.06112 2628 ft 208 kts 210°
2026-05-01 10:04 1.52953 104.05379 2525 ft 207 kts 205°
2026-05-01 10:04 1.51641 104.04796 2423 ft 206 kts 201°
2026-05-01 10:04 1.50323 104.04246 2311 ft 198 kts 200°
2026-05-01 10:04 1.49079 104.03728 2156 ft 189 kts 200°
2026-05-01 10:05 1.47876 104.03211 2002 ft 200 kts 201°
2026-05-01 10:05 1.46576 104.02665 2051 ft 193 kts 201°
2026-05-01 10:05 1.45384 104.02157 1790 ft 178 kts 202°
2026-05-01 10:05 1.44289 104.01669 1596 ft 168 kts 201°
2026-05-01 10:06 1.43191 104.01199 1359 ft 171 kts 201°
2026-05-01 10:06 1.42098 104.00729 1090 ft 170 kts 202°
2026-05-01 10:06 1.40980 104.00289 790 ft 172 kts 200°
2026-05-01 10:06 1.39879 103.99843 493 ft 169 kts 202°
2026-05-01 10:07 1.38804 103.99392 263 ft 164 kts 202°
2026-05-01 10:07 1.37731 103.98942 80 ft 163 kts 203°
2026-05-01 10:07 1.36772 103.98534 47 ft 127 kts 204°
2026-05-01 10:07 1.36128 103.98266 47 ft 74 kts 204°
2026-05-01 10:08 1.35738 103.98122 47 ft 12 kts 186°
2026-05-01 10:08 1.35646 103.98118 47 ft 13 kts 182°
2026-05-01 10:08 1.35553 103.98130 47 ft 13 kts 170°
2026-05-01 10:09 1.35460 103.98138 47 ft 14 kts 178°
2026-05-01 10:09 1.35365 103.98147 47 ft 13 kts 161°
2026-05-01 10:09 1.35328 103.98211 47 ft 12 kts 77°
2026-05-01 10:09 1.35365 103.98254 47 ft 4 kts 58°
2026-05-01 10:10 1.35380 103.98285 47 ft 6 kts 69°
2026-05-01 10:10 1.35397 103.98330 47 ft 7 kts 70°
2026-05-01 10:10 1.35434 103.98425 47 ft 3 kts 69°
2026-05-01 10:11 1.35436 103.98430 47 ft 0 kts 68°
2026-05-01 10:11 1.35437 103.98433 47 ft 0 kts 68°